SES-11 (ECHOSTAR 105) (42967 NORAD) Tracking and Keplerian Element Data

This shows tracking and keplerian element data for the satellite.

Feedback or suggestion? Click here.




ElementValue
Catalog42967
NameSES-11 (ECHOSTAR 105)
Epoch Orbit526
Epoch Day77.56021319
Epoch Year2019
RAAN166.677
Inclination0.0093
Eccentricity0.0002861
Argument of Perigee182.876
Mean Anonmoly282.9729
Mean Motion1.00271475
Decay Rate-1.12E-06
L11 42967U 17063A 19077.56021319 -.00000112 00000-0 00000-0 0 9991
L22 42967 0.0093 166.6770 0002861 182.8760 282.9729 1.00271475 5263

Live tracking and technical data element details for SES-11 (ECHOSTAR 105) (NORAD 42967). SES-11 (ECHOSTAR 105) can be tracked NOW for your location showing map with azimuth and elevation plus other details from your city location.

Track the satellite on the map from your city or location and see movement details for azimuth, elevation, latitude, longitude, range, height, and movement on the map or in text.







IsCatalogInMostPopularTable: catalog: 42967, numindb: 245
Update: records affected: 1



GetName: 42967 SES-11 (ECHOSTAR 105)

Hit Count: updated at: Wed, 20 Mar 2019 04:49:07 GMT